Location: Newark
(39.0622°N, 106.5590°E)
Time: 01:30:38
(UTC+00:00)

Vanguard 3 - Visible Passes

Search period start: 18 January 2020 00:00
Search period end: 28 January 2020 00:00
Orbit: 508 x 3263 km, 33.3° (Epoch: 17 January)

Date Brightness Start Highest point End Pass type
(mag) Time Alt. Az. Time Alt. Az. Time Alt. Az.
18 Jan 9.7 11:49:02 10° SW 12:06:54 51° SSE 12:13:07 34° ESE visible
18 Jan 9.6 14:05:22 10° WSW 14:17:42 51° SW 14:17:42 51° SW visible
19 Jan 10.4 10:33:15 10° SSW 10:50:49 41° SSE 11:03:22 12° E visible
19 Jan 9.2 12:47:57 10° WSW 13:05:54 63° S 13:07:56 58° SE visible
19 Jan 10.3 15:05:23 10° W 15:12:30 30° WSW 15:12:30 30° WSW visible
20 Jan 9.8 11:31:07 10° SW 11:49:50 56° SSE 11:58:09 29° E visible
20 Jan 9.4 13:47:42 10° WSW 14:02:43 62° SW 14:02:43 62° SW visible
20 Jan 11.0 16:05:29 10° W 16:07:17 14° W 16:07:17 14° W visible
21 Jan 10.5 10:15:17 10° SW 10:33:32 46° SSE 10:47:57 10° E visible
21 Jan 9.3 12:30:13 10° WSW 12:48:59 66° S 12:52:55 52° ESE visible
21 Jan 10.1 14:47:49 10° W 14:57:29 39° WSW 14:57:29 39° WSW visible
22 Jan 10.0 11:13:22 10° SW 11:32:41 60° SSE 11:43:06 23° E visible
22 Jan 9.3 13:30:04 10° W 13:47:40 69° SSW 13:47:40 69° SSW visible
22 Jan 10.8 15:48:02 10° W 15:52:14 20° W 15:52:14 20° W visible
23 Jan 10.5 09:57:31 10° SW 10:16:09 50° SSE 10:31:38 10° E visible
23 Jan 9.5 12:12:34 10° WSW 12:31:58 69° S 12:37:51 44° ESE visible
23 Jan 9.8 14:30:14 10° W 14:42:25 48° WSW 14:42:25 48° WSW visible
24 Jan 10.1 10:55:47 10° WSW 11:15:25 64° SSE 11:28:01 18° E visible
24 Jan 9.3 13:12:27 10° W 13:31:10 70° S 13:32:35 67° SSE visible
24 Jan 10.6 15:30:33 10° W 15:37:09 26° W 15:37:09 26° W visible
25 Jan 9.7 11:55:02 10° WSW 12:14:51 71° S 12:22:46 36° ESE visible
25 Jan 9.7 14:12:39 10° W 14:27:20 56° SW 14:27:20 56° SW visible
25 Jan 11.2 16:31:16 10° W 16:31:54 11° W 16:31:54 11° W visible
26 Jan 10.2 10:38:21 10° WSW 10:58:03 67° SSE 11:12:57 13° E visible
26 Jan 9.4 12:54:54 10° W 13:14:11 70° S 13:17:31 59° SE visible
26 Jan 10.4 15:13:01 10° W 15:22:05 32° WSW 15:22:05 32° WSW visible
27 Jan 9.9 11:37:37 10° WSW 11:57:38 72° S 12:07:42 29° ESE visible
27 Jan 9.6 13:55:04 10° W 14:12:17 60° SSW 14:12:17 60° SSW visible
27 Jan 11.0 16:13:58 10° W 16:16:51 15° W 16:16:51 15° W visible
